Weather in Palkino

Russia / Kostroma Oblast     58°14′24″N   42°55′56″E
temp.,
°C
wind,
m/s
gust,
m/s
humid.,
%
clouds,
%
prec.,
mm/h
press.,
hPa
HPBL,
m
9 may, sun
sun900:00+9se41379100 0.1 1006490
03:00+10se41294100 0.4 1005641
06:00+10sse41195100 1.1 1005669
09:00+10se31097100 2.9 1004574
12:00+10sw2599100 6.4 1006311
15:00+10wnw1398100 8.8 1007152
18:00+7nnw51197100 6.4 1010403
21:00+5nnw51195100 11.8 1014654
10 may, mon
mon1000:00+4nnw51290100 0.5 1016672
03:00+3nnw51389100 0.5 1019628
06:00+4nnw41286100 0.0 1023726
09:00+8n586348 0.0 1025979
12:00+12n45475 0.0 10261430
15:00+13n34425 0.0 10271657
18:00+12nne24535 0.0 1028373
21:00+6n22715 0.0 102911
11 may, tue
tue1100:00+5nne11745 0.0 103010
03:00+4ne11794 0.0 103110
06:00+6ene12715 0.0 103284
09:00+13ene23515 0.0 1032633
12:00+16e23395 0.0 10311034
15:00+18e22375 0.0 10311212
18:00+17ene12544 0.0 103064
21:00+10e22690 0.0 103110
12 may, wed
wed1200:00+8e22740 0.0 103211
03:00+7e22781 0.0 103114
06:00+9ene25720 0.0 1032143
09:00+16e35510 0.0 1031435
12:00+21ese34510 0.0 1030886
15:00+23se354660 0.0 10291746
18:00+20ese246598 0.0 1028110
21:00+15e367942 0.0 1028100
13 may, thu
thu1300:00+15e2878100 0.0 1028185
03:00+12ese239430 0.0 102844
06:00+14e278475 0.0 1028202
09:00+20se475546 0.0 1027679
12:00+20sse265580 0.0 10261093
15:00+24sse57415 0.0 10241866
18:00+22se375422 0.0 1023455
21:00+16se277584 0.0 1024119